Погода в Макаровской

Россия / Архангельская область     61°47′22″N   40°51′18″E
темп.,
°C
ветер,
м/с
пор.,
м/с
влажн.,
%
обл.,
%
осадки,
мм/ч
давл.,
гПа
погр.,
м
13 апреля, вт
вт1300:00+7ю4149254 0.0 1029418
03:00+6ю31292100 0.0 1028404
06:00+6ю41193100 0.1 1026506
09:00+8ю41191100 0.1 1024474
12:00+9ююз41189100 0.0 1023626
15:00+9ююз3991100 0.4 1022610
18:00+9ю2897100 2.1 1022258
21:00+8юз1497100 2.7 1021101
14 апреля, ср
ср1400:00+7ююз249791 0.0 1020108
03:00+7ю2398100 0.0 102067
06:00+7ю399699 0.0 1018227
09:00+12ююз4137774 0.0 1016573
12:00+16юз5136898 0.2 10161473
15:00+15юз5126870 0.9 10151389
18:00+9сз4893100 4.0 1017535
21:00+5с3693100 8.9 1019495
15 апреля, чт
чт1500:00+4ссз2588100 0.3 1021404
03:00+4ссз269097 0.3 1022396
06:00+3ссз2788100 0.0 1023439
09:00+4с3572100 0.0 1025685
12:00+5с3459100 0.0 10261096
15:00+6ссв3450100 0.0 10261383
18:00+5ссв245671 0.0 1027618
21:00+2с11745 0.0 102812
16 апреля, пт
пт1600:000с11795 0.0 102910
03:000ссз11800 0.0 102913
06:000ссз13785 0.0 102986
09:00+5ссз23483 0.0 1029576
12:00+7ссз35465 0.0 10301439
15:00+9ссз464572 0.0 10301881
18:00+6с47555 0.0 10321133
21:00+2с310685 0.0 1034487
17 апреля, сб
сб1700:000с310805 0.0 1036452
03:00−1ссз39855 0.0 1037381
06:00−1с38855 0.0 1039417
09:00+3с34545 0.0 1039751
12:00+6ссз24395 0.0 10381219
15:00+7сз354452 0.0 10381380
18:00+7сз265699 0.0 1036390
21:00+3з287590 0.0 1036167